Hill City, KS

12:11 AM CST on February 21, 2018 (GMT -0600)
Hill City Municipal

Weather History for KHLC - October, 2013

Change the Weather History Date:

Monday, October 28, 2013

  Actual Average Record
Temperature  
Mean Temperature 48 °F 49 °F  
Max Temperature 56 °F 63 °F 104 °F (2016)
Min Temperature 39 °F 35 °F 12 °F (1925)
Degree Days  
Heating Degree Days 18    
Moisture  
Dew Point 41 °F    
Average Humidity 77    
Maximum Humidity 100    
Minimum Humidity 47    
Precipitation  
Precipitation 0.05 in 0.03 in 0.55 in (2000)
Month to date precipitation 0.96 1.42  
Year to date precipitation 16.77 21.18  
Sea Level Pressure  
Sea Level Pressure 29.98 in    
Wind  
Wind Speed 8 mph (NE)    
Max Wind Speed 15 mph    
Max Gust Speed 22 mph    
Visibility 8 miles    
Events Rain    
T = Trace of Precipitation, MM = Missing Value Source: NWS Daily Summary

Daily Weather History Graph

Daily Weather History Graph

Search for Another Location

Airport or City:

Trip Planner

Search our weather history database for the weather conditions in past years. The results will help you decide how hot, cold, wet, or windy it might be!

Date:

Astronomy

Oct. 28, 2013 Rise Set
Actual Time 8:03 AM CDT 6:42 PM CDT
Civil Twilight 7:35 AM CDT 7:09 PM CDT
Nautical Twilight 7:04 AM CDT 7:41 PM CDT
Astronomical Twilight 6:32 AM CDT 8:12 PM CDT
Moon 1:59 AM CDT (10/28) 3:23 PM CDT (10/28)
Length of Visible Light 11h 34m
Length of Day
10h 39m
Waning Crescent, 34% of the Moon is Illuminated
Oct 28
Waning Crescent
Nov 3
New
Nov 9
First Quarter
Nov 17
Full
Nov 25
Last Quarter

Hourly Weather History & Observations

Time (CDT) Temp. Windchill Dew Point Humidity Pressure Visibility Wind Dir Wind Speed Gust Speed Precip Events Conditions
12:53 AM 53.1 °F - 33.1 °F 47% 29.82 in 10.0 mi South 4.6 mph - N/A   Clear
1:53 AM 53.1 °F - 33.1 °F 47% 29.82 in 10.0 mi Calm Calm - N/A   Clear
2:53 AM 48.9 °F - 34.0 °F 56% 29.84 in 10.0 mi Calm Calm - N/A   Clear
3:53 AM 46.0 °F 41.0 °F 34.0 °F 63% 29.87 in 10.0 mi NNE 10.4 mph - N/A   Clear
4:53 AM 44.1 °F 39.0 °F 32.0 °F 63% 29.88 in 10.0 mi ENE 9.2 mph - N/A   Clear
5:53 AM 39.9 °F 35.8 °F 32.0 °F 73% 29.91 in 10.0 mi ENE 5.8 mph - N/A   Clear
6:53 AM 39.9 °F 35.1 °F 30.9 °F 70% 29.93 in 10.0 mi East 6.9 mph - N/A   Clear
7:53 AM 39.9 °F 35.8 °F 32.0 °F 73% 29.96 in 10.0 mi NNE 5.8 mph - N/A   Clear
8:53 AM 41.0 °F 34.3 °F 34.0 °F 76% 29.99 in 10.0 mi NE 11.5 mph - N/A   Clear
9:53 AM 43.0 °F 36.0 °F 35.1 °F 74% 30.03 in 10.0 mi NE 13.8 mph - N/A   Clear
10:53 AM 45.0 °F 38.5 °F 36.0 °F 71% 30.03 in 10.0 mi NE 13.8 mph 19.6 mph N/A   Clear
11:53 AM 50.0 °F - 36.0 °F 59% 30.03 in 10.0 mi ENE 12.7 mph 19.6 mph N/A   Clear
12:53 PM 53.1 °F - 37.9 °F 57% 30.01 in 10.0 mi East 15.0 mph 21.9 mph N/A   Clear
1:53 PM 55.0 °F - 41.0 °F 59% 29.99 in 10.0 mi ENE 11.5 mph - N/A   Mostly Cloudy
2:53 PM 55.0 °F - 41.0 °F 59% 29.97 in 10.0 mi ENE 10.4 mph - N/A   Overcast
3:53 PM 54.0 °F - 41.0 °F 62% 29.98 in 10.0 mi NNE 10.4 mph - N/A   Overcast
4:53 PM 54.0 °F - 43.0 °F 66% 29.98 in 10.0 mi NE 11.5 mph - N/A   Overcast
5:13 PM 53.6 °F - 46.4 °F 77% 29.98 in 10.0 mi NE 15.0 mph 18.4 mph N/A   Overcast
5:53 PM 53.1 °F - 48.0 °F 83% 29.99 in 7.0 mi NNE 10.4 mph - N/A   Overcast
6:53 PM 52.0 °F - 46.0 °F 80% 30.01 in 10.0 mi NE 10.4 mph - N/A   Overcast
7:13 PM 53.6 °F - 48.2 °F 82% 30.00 in 8.0 mi NE 11.5 mph - N/A   Overcast
7:53 PM 50.0 °F - 46.9 °F 89% 30.04 in 7.0 mi NNE 12.7 mph 19.6 mph 0.00 in Rain Light Rain
8:36 PM 46.4 °F 40.4 °F 46.4 °F 100% 30.02 in 4.0 mi NNE 13.8 mph - 0.00 in Rain Light Rain
8:53 PM 46.9 °F - 46.0 °F 97% 30.04 in 5.0 mi NNE 12.7 mph - 0.00 in   Overcast
9:33 PM 46.4 °F 41.1 °F 46.4 °F 100% 30.01 in 1.8 mi NE 11.5 mph - 0.00 in Rain Light Rain
9:53 PM 48.0 °F - 48.0 °F 100% 30.03 in 2.0 mi NE 9.2 mph - 0.00 in Rain Light Rain
10:16 PM 48.2 °F - 48.2 °F 100% 30.03 in 1.8 mi ENE 8.1 mph - 0.01 in Rain Light Rain
10:43 PM 48.2 °F - 48.2 °F 100% 30.01 in 2.5 mi NNE 10.4 mph 17.3 mph 0.02 in Rain Light Rain
10:53 PM 48.0 °F - 46.9 °F 96% 30.02 in 3.0 mi NNE 10.4 mph - 0.02 in   Overcast
11:32 PM 46.4 °F 41.1 °F 46.4 °F 100% 30.01 in 2.0 mi NNE 11.5 mph - 0.00 in Rain Light Rain
11:53 PM 46.0 °F 40.2 °F 45.0 °F 96% 30.01 in 2.5 mi NNE 12.7 mph 18.4 mph 0.01 in Rain Light Rain